Location: Slemon Park
(46.4340°N, 63.8219°W)
Time: 15:06:27
(UTC-03:00)

ISS - All Passes

Search period start: 31 March 2015 00:00
Search period end: 10 April 2015 00:00
Orbit: 396 x 405 km, 51.6° (Epoch: 31 March)

Date Brightness Start Highest point End Pass type
(mag) Time Alt. Az. Time Alt. Az. Time Alt. Az.
31 Mar - 00:52:04 10° W 00:55:13 45° NNW 00:58:21 10° ENE night (unlit)
31 Mar - 02:29:07 10° WNW 02:32:04 31° N 02:35:02 10° ENE night (unlit)
31 Mar - 04:05:36 10° WNW 04:08:50 65° NNE 04:12:03 10° ESE visible
31 Mar - 05:42:22 10° W 05:45:02 23° SW 05:47:37 10° SSE visible
31 Mar - 22:22:48 10° SSW 22:25:28 24° SE 22:28:11 10° E night (unlit)
31 Mar - 23:58:26 10° WSW 00:01:40 64° NNW 00:04:55 10° ENE night (unlit)
01 Apr - 01:35:29 10° WNW 01:38:27 31° N 01:41:24 10° ENE night (unlit)
01 Apr - 03:12:09 10° WNW 03:15:18 45° NNE 03:18:26 10° E night (unlit)
01 Apr - 04:48:37 10° WNW 04:51:42 40° SW 04:54:44 10° SE visible
01 Apr - 21:30:30 10° SSE 21:32:11 14° SE 21:33:57 10° ESE night (unlit)
01 Apr - 23:04:54 10° WSW 23:08:10 81° SSE 23:11:26 10° ENE night (unlit)
02 Apr - 00:41:46 10° WNW 00:44:47 34° N 00:47:49 10° ENE night (unlit)
02 Apr - 02:18:38 10° WNW 02:21:41 36° N 02:24:44 10° E night (unlit)
02 Apr - 03:55:01 10° WNW 03:58:16 71° SSW 04:01:29 10° SE night (unlit)
02 Apr - 05:33:00 10° WSW 05:34:11 11° SW 05:35:17 10° SSW visible
02 Apr - 22:11:33 10° SW 22:14:41 47° SSE 22:17:51 10° ENE visible
02 Apr - 23:48:00 10° W 23:51:08 42° NNW 23:54:16 10° ENE night (unlit)
03 Apr - 01:25:02 10° WNW 01:28:00 31° N 01:30:59 10° ENE night (unlit)
03 Apr - 03:01:29 10° WNW 03:04:45 72° NNE 03:07:58 10° ESE night (unlit)
03 Apr - 04:38:22 10° W 04:40:52 20° SW 04:43:20 10° S night (unlit)
03 Apr - 21:18:28 10° SSW 21:21:16 27° SE 21:24:05 10° E visible
03 Apr - 22:54:16 10° WSW 22:57:30 59° NNW 23:00:43 10° ENE visible
04 Apr - 00:31:20 10° WNW 00:34:17 31° N 00:37:14 10° ENE night (unlit)
04 Apr - 02:07:56 10° WNW 02:11:07 48° NNE 02:14:17 10° E night (unlit)
04 Apr - 03:44:27 10° WNW 03:47:28 35° SW 03:50:27 10° SSE night (unlit)
04 Apr - 20:25:53 10° S 20:27:52 15° SE 20:29:54 10° E visible
04 Apr - 22:00:37 10° WSW 22:03:52 90° S 22:07:09 10° ENE visible
04 Apr - 23:37:31 10° WNW 23:40:32 33° N 23:43:33 10° ENE night (unlit)
05 Apr - 01:14:21 10° WNW 01:17:26 37° NNE 01:20:29 10° E night (unlit)
05 Apr - 02:50:44 10° WNW 02:53:57 63° SSW 02:57:09 10° SE night (unlit)
05 Apr - 04:29:37 10° SW 04:29:50 10° SW 04:29:55 10° SW night (unlit)
05 Apr - 21:07:07 10° SW 21:10:18 53° SSE 21:13:29 10° ENE visible
05 Apr - 22:43:40 10° W 22:46:46 40° NNW 22:49:53 10° ENE visible
06 Apr - 00:20:40 10° WNW 00:23:39 32° N 00:26:38 10° ENE night (unlit)
06 Apr - 01:57:05 10° WNW 02:00:21 79° NNE 02:03:35 10° ESE night (unlit)
06 Apr - 03:34:05 10° W 03:36:26 18° SW 03:38:42 10° S night (unlit)
06 Apr - 20:13:52 10° SSW 20:16:45 30° SE 20:19:40 10° ENE visible
06 Apr - 21:49:49 10° W 21:53:02 54° NNW 21:56:14 10° ENE visible
06 Apr - 23:26:52 10° WNW 23:29:49 31° N 23:32:47 10° ENE visible
07 Apr - 01:03:27 10° WNW 01:06:39 52° NNE 01:09:49 10° E night (unlit)
07 Apr - 02:39:59 10° WNW 02:42:56 32° SW 02:45:51 10° SSE night (unlit)
07 Apr - 19:21:02 10° S 19:23:15 17° SE 19:25:31 10° E daylight
07 Apr - 20:56:02 10° WSW 20:59:18 83° NNW 21:02:35 10° ENE visible
07 Apr - 22:32:59 10° WNW 22:35:59 32° N 22:38:59 10° ENE visible
08 Apr - 00:09:45 10° WNW 00:12:51 39° NNE 00:15:56 10° E visible
08 Apr - 01:46:09 10° WNW 01:49:21 56° SSW 01:52:31 10° SE night (unlit)
08 Apr - 20:02:24 10° SW 20:05:37 59° SSE 20:08:50 10° ENE daylight
08 Apr - 21:39:02 10° W 21:42:07 38° NNW 21:45:12 10° ENE visible
08 Apr - 23:15:59 10° WNW 23:18:59 33° N 23:22:00 10° ENE visible
09 Apr - 00:52:24 10° WNW 00:55:40 86° NNE 00:58:54 10° ESE night (unlit)
09 Apr - 02:29:32 10° W 02:31:41 16° SW 02:33:46 10° S night (unlit)
09 Apr - 19:08:59 10° SSW 19:11:57 33° SE 19:14:57 10° ENE daylight
09 Apr - 20:45:04 10° W 20:48:16 51° NNW 20:51:28 10° ENE visible
09 Apr - 22:22:07 10° WNW 22:25:04 31° N 22:28:02 10° ENE visible
